Regional Weather Roundup
Issued by NWS Upton, NY

Current Version | Previous Version | Graphics & Text | Print | Product List | Glossary Off
Versions: 1 2 3 4 5 6 7 8 9 10 11 12 13 14 15 16 17 18 19 20 21 22 23 24 25 26 27 28 29 30 31 32 33 34 35 36 37 38 39 40 41 42 43 44 45 46 47 48

000
ASUS41 KOKX 301504
RWROKX

REGIONAL WEATHER ROUNDUP
NATIONAL WEATHER SERVICE NEW YORK NY
1100 AM EDT SUN AUG 30 2015

NOTE: "FAIR" INDICATES FEW OR NO CLOUDS BELOW 12,000 FEET WITH NO
SIGNIFICANT WEATHER AND/OR OBSTRUCTIONS TO VISIBILITY.

NYZ071-072-176-178-NJZ106-104-301600-
NEW YORK CITY METRO AREA


CITY           SKY/WX    TMP DP  RH WIND       PRES   REMARKS
CENTRAL PARK   SUNNY     83  63  50 CALM      30.13F
LAGUARDIA APRT MOSUNNY   82  63  52 S7        30.10S
KENNEDY INTL   MOSUNNY   80  65  59 S7        30.12S
NEWARK/LIBERTY PTSUNNY   82  64  54 W5        30.10F
BRNX BOT. GARD   N/A     81  64  57 S2        30.13R
TETERBORO      SUNNY     81  64  56 S7        30.09F
$$

NYZ177-179-078>081-301600-
LONG ISLAND NEW YORK

CITY           SKY/WX    TMP DP  RH WIND       PRES   REMARKS
FARMINGDALE    SUNNY     82  65  56 SW5       30.12S
ISLIP          PTSUNNY   80  67  64 SW8       30.10S
SHIRLEY        SUNNY     81  67  62 S10       30.12S
WESTHAMPTON    SUNNY     81  67  62 SW10      30.13S
MONTAUK POINT    N/A     80  66  62 W7        30.12S
$$

NYZ052-065-067-301600-
HUDSON VALLEY

CITY           SKY/WX    TMP DP  RH WIND       PRES   REMARKS
WHITE PLAINS   SUNNY     81  64  56 SW5       30.11S
NEWBURGH       MOSUNNY   77  68  73 VRB6      30.12S
MONTGOMERY     SUNNY     78  68  71 MISG      30.10F
POUGHKEEPSIE   PTSUNNY   79  65  62 VRB3      30.09F
ALBANY         CLOUDY    72  62  71 CALM      30.11S
$$

NJZ001-105-106-008-010-013-015-019>022-104-301600-
NEW JERSEY

CITY           SKY/WX    TMP DP  RH WIND       PRES   REMARKS
NEWARK/LIBERTY PTSUNNY   82  64  54 W5        30.10F
TETERBORO      SUNNY     81  64  56 S7        30.09F
CALDWELL       SUNNY     79  65  62 W6        30.11S
MORRISTOWN     MOSUNNY   82  68  61 CALM      30.11S
SOMERVILLE     MOSUNNY   81  66  60 VRB5      30.10S
SUSSEX         MOSUNNY   77  66  68 VRB5      30.11S
ANDOVER          N/A     75  67  76 VRB3      30.12F
TRENTON        SUNNY     79  66  64 SW6       30.12S
MILLVILLE      MOSUNNY   80  65  59 SW7       30.14F
ATLANTIC CITY  MOSUNNY   83  64  52 W8G18     30.14
WRIGHTSTOWN    SUNNY     80  67  63 SW10      30.11R
TOMS RIVER     SUNNY     82  64  54 SW6       30.13S
BELMAR         SUNNY     81  64  57 SW5       30.13S
$$

PAZ047>061-062-071-301600-
EASTERN PENNSYLVANIA

CITY           SKY/WX    TMP DP  RH WIND       PRES   REMARKS
PHILADELPHIA   PTSUNNY   81  64  56 SW8       30.13F
ALLENTOWN      SUNNY     79  66  64 CALM      30.12S
SCRANTON       SUNNY     77  64  64 SW6       30.12F
$$

CTZ002-004>006-009-010-012-RIZ004-006-007-MAZ004-011-015-301600-
SOUTHERN NEW ENGLAND
 IN CT

CITY           SKY/WX    TMP DP  RH WIND       PRES   REMARKS
BRADLEY INTL   PTSUNNY   80  64  58 CALM      30.08F
HARTFORD       PTSUNNY   80  64  58 VRB5      30.09S
DANBURY        SUNNY     80  65  59 CALM      30.12S
WTRBRY/OXFORD  MOSUNNY   79  63  57 W3        30.14R
BRIDGEPORT     SUNNY     78  66  66 SW13      30.11R
MERIDEN        PTSUNNY   82  62  50 CALM      30.09F
NEW HAVEN      MOSUNNY   77  66  68 SW7       30.11S
CHESTER        NOT AVBL
GROTON         SUNNY     76  70  82 SW12      30.10R
WILLIMANTIC    SUNNY     80  64  58 W5        30.10F

 IN RI

CITY           SKY/WX    TMP DP  RH WIND       PRES   REMARKS
PROVIDENCE     SUNNY     83  64  52 W9        30.08F
BLOCK ISLAND   SUNNY     77  66  69 W10       30.12R
WESTERLY       SUNNY     79  66  64 SW7       30.11R

 IN MA

CITY           SKY/WX    TMP DP  RH WIND       PRES   REMARKS
BOSTON         MOSUNNY   82  62  50 W6        30.06F
WORCESTER      SUNNY     76  62  62 W7        30.12S
WESTFIELD      CLOUDY    74  63  68 CALM      30.10S
PROVINCETOWN   SUNNY     77  64  65 SW10      30.08S
NANTUCKET      SUNNY     77  68  73 SW10      30.11S
$$

ANZ330-335-338-340-345-350-353-355-301600-
COASTAL MARINE OBSERVATIONS


STATION/POSITION TIME  SKY/WX   TEMP    WIND        PRES    VSBY  WAVE
                                AIR SEA DIR/SP/G                  HT/PER
                 (UTC)          (F)     (DEG/KT/KT) (MB)    (MI)  (FT/S)
NY HARB ENTRANCE 1350            74 76  240/  6/  8 1019.7          2/11
4S FIRE IS       NOT AVBL
20S FIRE ISLAND  1350            74 74  250/ 12/ 12 1019.9          3/11
GREAT SOUTH BAY  1430            74 77  230/ 10/ 12   N/A
23SW MTP         1450            73 72  240/ 12/ 14 1019.6          3/11
HUDSON CANYON    NOT AVBL
KINGS POINT      NOT AVBL
EXECUTION ROCKS  1400            75     210/  4/  6   N/A
CENTRAL LI SOUND NOT AVBL
EASTERN LI SOUND 1400            76 71  240/  8/ 10   N/A
ROBBINS REEF     NOT AVBL
$$


>>>>>>>>>>>>>>>>>>>>>>>>>>>> KEY <<<<<<<<<<<<<<<<<<<<<<<<<<<
>                                                          <
>     SKY/WX - SKY CONDITION/PRESENT WEATHER               <
>     TMP    - TEMPERATURE IN FAHRENHEIT                   <
>     DP     - DEWPOINT IN FAHRENHEIT                      <
>     RH     - RELATIVE HUMIDITY IN PERCENT                <
>     WIND   - DIRECTION AND SPEED IN MPH                  <
>     PRES   - MEAN SEA LEVEL PRESSURE IN INCHES OF HG     <
>     WCI    - WIND CHILL INDEX                            <
>     VSB    - VISIBILITY IN MILES                         <
>     HX     - HEAT INDEX                                  <
>     TC     - TEMPERATURE IN CELSIUS                      <
>     VRB    - VARIABLE WIND DIRECTION                     <
>                                                          <
>>>>>>>>>>>>>>>>>>>>>>>>>>>> KEY <<<<<<<<<<<<<<<<<<<<<<<<<<<





USA.gov is the U.S. government's official web portal to all federal, state and local government web resources and services.